Flag for Ireland Weather past 2 weeks in Dundalk, Ireland

Now
62 °F

Cool.


Feels Like: 62 °F
Forecast: 54 / 62 °F
Wind: 2 mph from West

Location: Glenanne

Current Time: Aug 1, 2014 at 5:54:37 PM

Latest Report: Aug 1, 2014 at 5:00 PM


Visibility: 25 mi

Pressure: 29.63 "Hg

Humidity: 72%

Dew point: 53 °F

Location of DundalkLocation

Historic Weather in Dundalk — Graph

°F

Dundalk temperature yesterday

Maximum temperature yesterday: 67 °F (at 4:00 PM)
Minimum temperature yesterday: 55 °F (at 5:00 AM)
Average temperature yesterday: 60 °F

Past Weeks' High & Low Weather Summary

 TemperatureHumidityPressure
High77 °F (Jul 24, 5:00 PM)99% (Jul 19, 7:00 AM)30.23 "Hg (Jul 19, 7:00 AM)
Low51 °F (Aug 1, 3:00 AM)48% (Jul 24, 5:00 PM)29.61 "Hg (Aug 1, 3:00 PM)
Average62 °F81%29.99 "Hg
* Reported Jul 17 4:00 PM — Aug 1 4:00 PM, Dundalk, Weather by CustomWeather, © 2014

Note: Actual official high and low records may vary slightly from our data, if they occured in-between our weather recording intervals... More about our weather records

Advertising

Dundalk weather history for previous 24 hours

 ConditionsComfort  
Time TempWeatherWind HumidityBarometerVisibility
4:00 PM
Aug 1
58 °FRain showers. Cloudy.8 mph88%29.63 "Hg19 mi
3:00 PM66 °FMild.9 mph62%29.61 "Hg19 mi
2:00 PM67 °FMild.6 mph60%29.62 "Hg22 mi
1:00 PM62 °FCool.7 mph70%29.63 "Hg31 mi
12:00 PM62 °FCool.5 mph79%29.64 "Hg25 mi
11:00 AM59 °FCool.6 mph83%29.65 "Hg25 mi
10:00 AM57 °FCool.6 mph89%29.66 "Hg16 mi
9:00 AM56 °FRain showers. Cloudy.5 mph96%29.67 "Hg12 mi
8:00 AM54 °FLight rain. Cloudy.6 mph97%29.67 "Hg4 mi
7:00 AM54 °FDrizzle. Cloudy.6 mph95%29.68 "Hg6 mi
6:00 AM54 °FRain showers. Cloudy.6 mph94%29.68 "Hg9 mi
5:00 AM53 °FCool.3 mph92%29.69 "Hg11 mi
4:00 AM51 °FCool.3 mph94%29.71 "Hg9 mi
3:00 AM51 °FCool.3 mph92%29.73 "Hg11 mi
2:00 AM53 °FCool.3 mph91%29.74 "Hg12 mi
1:00 AM53 °FCool.2 mph87%29.74 "Hg17 mi
12:00 AM56 °FCool.3 mph82%29.75 "Hg25 mi
11:00 PM
Jul 31
57 °FCool.3 mph81%29.75 "Hg15 mi
10:00 PM58 °FCool.2 mph82%29.75 "Hg22 mi
9:00 PM60 °FCool.3 mph78%29.75 "Hg22 mi
8:00 PM60 °FCool.7 mph76%29.75 "Hg22 mi
7:00 PM65 °FMild.6 mph58%29.74 "Hg19 mi
6:00 PM66 °FMild.6 mph73%29.74 "Hg13 mi
5:00 PM64 °FMild.8 mph74%29.74 "Hg17 mi
Weather by CustomWeather, © 2014

See weather overviewHow to use our weather pages